Meteo Giornale » Osservazioni meteo Italia » S Maria Di Leuca

ore: 07:55 - Osservazioni Meteo S Maria Di Leuca
Lat. 39° 49' N Lon. 18° 21' E Alt. 104 metri s.l.m.

sereno Europe/Rome

16 °C

Sereno

Temp. 24 Ore

16 °C

19 °C

Nord

5.5 Km/h

Dew point 14 °C

Umidità 87 %

Visibilità  10 Km

Il sole sorge alle ore 05:37

Il sole tramonta alle ore 18:06

Data e Ora Cielo e Fenomeni T °C DP °C Um. % Pres. hPa Vis. km Vento km/h
Oggi h: 07:55 sereno Sereno 16 14 87 1015 10 N 5.5
Oggi h: 06:55 sereno Sereno 16 14 87 1015 10 S/SO 7.4
Oggi h: 05:55 sereno Sereno 16 15 93 1016 10 S/SE 7.4
Oggi h: 04:55 sereno Sereno 16 15 93 1016 10 S/SO 7.4
Oggi h: 01:55 sereno Sereno 16 15 93 1017 10 O 11.1
Oggi h: 00:55 sereno Sereno 16 15 93 1018 10 O 9.3
Ieri h: 23:55 sereno Sereno 16 15 93 1018 10 O 9.3
Ieri h: 22:55 sereno Sereno 16 15 93 1018 10 O 9.3
Ieri h: 21:55 sereno Sereno 16 15 93 1018 10 O 9.3
Ieri h: 20:55 sereno Sereno 16 15 93 1018 10 N 5.5
Ieri h: 19:55 sereno Sereno 16 15 93 1018 10 O/NO 7.4
Ieri h: 18:55 sereno Sereno 16 15 93 1018 10 O 7.4
Ieri h: 17:55 sereno Sereno 16 15 93 1019 10 O/SO 7.4
Ieri h: 16:55 sereno Sereno 17 15 88 1019 10 N 5.5
Ieri h: 15:55 sereno Sereno 17 14 82 1019 10 O/SO 7.4
Ieri h: 14:55 sereno Sereno 17 14 82 1020 10 O/SO 9.3
Ieri h: 13:55 sereno Sereno 17 14 82 1020 10 N 5.5
Ieri h: 12:55 sereno Sereno 17 14 82 1021 10 O/SO 13
Ieri h: 11:55 sereno Sereno 18 15 82 1021 10 O 11.1
Ieri h: 10:55 sereno Sereno 19 13 68 1020 10 E/NE 7.4
Ieri h: 09:55 sereno Sereno 18 12 67 1020 10 E/NE 9.3
Ieri h: 08:55 sereno Sereno 16 12 77 1020 10 NE 9.3